Regional Weather Roundup
Issued by NWS Green Bay, WI

Home | Current Version | Previous Version | Graphics & Text | Print | Product List | Glossary Off
Versions: 1 2 3 4 5 6 7 8 9 10 11 12 13 14 15 16 17 18 19 20 21 22 23 24 25 26 27 28 29 30 31 32 33 34 35 36 37 38 39 40 41 42 43 44 45 46 47 48 49 50

000
ASUS43 KGRB 180159
RWRGRB

NORTH-CENTRAL AND NORTHEAST WISCONSIN REGIONAL WEATHER ROUNDUP
NATIONAL WEATHER SERVICE GREEN BAY WI
900 PM CDT WED SEP 17 2014

WIZ005-009-010>012-018-019-180300-
NORTH CENTRAL WISCONSIN

CITY           SKY/WX    TMP DP  RH WIND       PRES   REMARKS
IRONWOOD       CLOUDY    43  43 100 NE9       30.09R
MANITOWISH WTR NOT AVBL
ARBOR VITAE    NOT AVBL
EAGLE RIVER    NOT AVBL
LAND O LAKES   NOT AVBL
RHINELANDER    CLOUDY    51  46  83 NE7       30.06R
PHILLIPS       CLEAR     51  46  83 NE8       30.04R
ANTIGO         NOT AVBL
TOMAHAWK       NOT AVBL
MERRILL        NOT AVBL
$$

WIZ013-073-180300-
NORTHEAST WISCONSIN

CITY           SKY/WX    TMP DP  RH WIND       PRES   REMARKS
IRON MOUNTAIN  CLOUDY    46  40  79 N8        30.07R
MARINETTE      CLOUDY    50  43  76 NE14      30.05R
$$

WIZ017-030-035>037-045-180300-
CENTRAL WISCONSIN

CITY           SKY/WX    TMP DP  RH WIND       PRES   REMARKS
MEDFORD        NOT AVBL
WAUSAU         PTCLDY    55  52  89 N9        29.99R
MOSINEE        PTCLDY    57  54  88 W5        30.01R
MARSHFIELD     CLEAR     55  52  89 CALM      30.00R
WISC RAPIDS    CLEAR     53  51  93 CALM      30.01R
STEVENS POINT  NOT AVBL
WAUPACA        NOT AVBL
SHAWANO        CLOUDY    58  50  73 NE13G20   30.03R
CLINTONVILLE   MOCLDY    54  50  87 NE5       29.99R
$$

WIZ038-039-048-051-180300-
FOX VALLEY

CITY           SKY/WX    TMP DP  RH WIND       PRES   REMARKS
NWS GREEN BAY  CLOUDY    55  51  86 NE21G30   30.02R
APPLETON       PTCLDY    55  48  76 W6        29.99R
OSHKOSH        CLEAR     59  50  72 SW3       29.99R
FOND DU LAC    CLEAR     56  50  80 CALM      30.00R
$$

WIZ022-050-052-180300-
EAST CENTRAL WISCONSIN

CITY           SKY/WX    TMP DP  RH WIND       PRES   REMARKS
STURGEON BAY   MOCLDY    52  46  82 NE14G22   30.04R
MANITOWOC      NOT AVBL
SHEBOYGAN      CLEAR     54  49  83 CALM      30.00R
$$

LMZ563-521-522-541>543-180300-
LAKESHORE

STATION/POSITION TIME  TEMP    WIND        PRES    VSBY  WAVE
                       AIR SEA DIR/SP/G                  HT/PER
                 (UTC) (F)     (DEG/KT/KT) (MB)    (MI)  (FT/S)
SHEBOYGAN LKSHOR 0100   58 49  200/  8/  8 1015.9R
KEWAUNEE LKSHORE 0100   58     340/  3/  4 1014.0R
NORTHPORT PIER   0100   52      10/ 17/ 20 1017.6R
N MID LAKE BUOY  0100   53 58   20/ 19/ 23 1016.3R         3/ 4
CHAMBERS ISLAND  0100   53      10/ 23/ 26 1016.6R
MENOMINEE LKSHOR 0100   52      10/ 19/ 24 1017.8R
$$


USA.gov is the U.S. government's official web portal to all federal, state and local government web resources and services.